Regional Weather Roundup
Issued by NWS

Home | Current Version | Previous Version | Text Only | Print | Product List | Glossary Off
Versions: 1 2 3 4 5 6 7 8 9 10 11 12 13 14 15 16 17 18 19 20 21 22 23 24 25 26 27 28 29 30 31 32 33 34 35 36 37 38 39 40 41 42 43 44 45 46 47 48 49 50

000
ASUS43 KDTX 151910
RWRMI
MICHIGAN HOURLY REGIONAL WEATHER ROUNDUP
NATIONAL WEATHER SERVICE DETROIT/PONTIAC MI
200 PM EST FRI DEC 15 2017

NOTE: "FAIR" INDICATES FEW OR NO CLOUDS BELOW 12,000 FEET WITH NO
SIGNIFICANT WEATHER AND/OR OBSTRUCTION TO VISIBILITY.

MIZ047>049-052>055-059>063-066>070-074>076-081>083-152000-
SOUTHEAST LOWER MICHIGAN

CITY           SKY/WX    TMP DP  RH WIND       PRES   REMARKS
ADRIAN         CLOUDY    26  18  71 W12G22    29.84R WCI  16
ALMA           CLOUDY    25  19  76 W15       29.77R WCI  13
ANN ARBOR      FLURRIES  25  19  78 SW17      29.79S WCI  12
BAD AXE        CLOUDY    23  18  83 W14       29.71S WCI  10
CARO           CLOUDY    24  19  81 SW14G20   29.73R WCI  12
DETROIT CITY   LGT SNOW  25  19  78 W18G25    29.79R WCI  11
DETROIT        LGT SNOW  29  19  66 SW23G29   29.80S WCI  15
FLINT          FLURRIES  24  19  81 W13       29.77R WCI  12
GROSSE ILE     CLOUDY    26  19  73 W14G20    29.80R WCI  15
HILLSDALE      LGT SNOW  27  19  74 W18G26    29.80R WCI  13
HOWELL         LGT SNOW  24  21  87 W13       29.77S WCI  13

CITY           SKY/WX    TMP DP  RH WIND       PRES   REMARKS
JACKSON        HVY SNOW  25  19  78 SW13      29.79R VSB 1/4 WCI  14
LAMBERTVILLE   CLOUDY    26  19  73 W13G21    29.84S WCI  15
LANSING        LGT SNOW  25  21  85 W13       29.79R FOG     WCI  14
LAPEER         LGT SNOW  24  19  81 W8G16     29.75S WCI  15
MASON          LGT SNOW  26  19  75 W9        29.78S WCI  17
MONROE         CLOUDY    26  18  71 SW20G26   29.81S WCI  13
MT. CLEMENS    LGT SNOW  25  23  93 W13       29.75S DRFTSNOWWCI  13
PONTIAC        LGT SNOW  23  20  88 W9        29.75R FOG     WCI  13
PORT HOPE        N/A     23  18  81 SW9       29.68F WCI  13
PORT HURON     LGT SNOW  25  18  74 SW8       29.76S WCI  16
TRI CITIES     FLURRIES  24  18  77 W17       29.75R WCI  11
MIDLAND        CLOUDY    26  17  66 W14G23    29.73S WCI  15
TROY           LGT SNOW  26  21  83 SW9       29.79R WCI  16
SAGINAW HB     CLOUDY    27  19  74 W14G21    29.75R WCI  15
$$
MIZ043>046-050>051-056>058-064>065-071>073-077>080-152000-
SOUTHWEST LOWER MICHIGAN

CITY           SKY/WX    TMP DP  RH WIND       PRES   REMARKS
BATTLE CREEK   FLURRIES  25  18  74 W16G28    29.81R WCI  12
BENTON HARBOR  CLOUDY    28  15  58 W16G25    29.88S WCI  16
BIG RAPIDS     LGT SNOW  22  16  76 W10       29.75S WCI  11
COLDWATER      FLURRIES  26  18  71 W15G26    29.84S WCI  14
HOLLAND        LGT SNOW  27  18  69 W17G29    29.84R WCI  14
GRAND RAPIDS   CLOUDY    26  20  77 W13       29.80R WCI  15
IONIA          LGT SNOW  26  21  83 W10       29.77S WCI  16
KALAMAZOO      FLURRIES  27  16  63 W14G23    29.84R WCI  16
LUDINGTON      CLOUDY    24  13  63 NW8       29.79S WCI  15
MARSHALL       FLURRIES  25  17  72 W18G24    29.80R WCI  12
MOUNT PLEASANT CLOUDY    26  15  64 W10G17    29.75R WCI  16
MUSKEGON       LGT SNOW  27  16  63 W18G25    29.81S WCI  14
SOUTH HAVEN    CLOUDY    29  15  57 W17G24    29.86S WCI  17
$$
MIZ016>042-152000-
NORTHERN LOWER MICHIGAN

CITY           SKY/WX    TMP DP  RH WIND       PRES   REMARKS
ALPENA         CLOUDY    25  20  81 W6        29.65F WCI  18
BEAVER ISLAND  CLOUDY    26  18  73 W13G22    29.68S WCI  14
BELLAIRE       SNOW      24  24  97 W8        29.70R VSB 1/4 WCI  15
CADILLAC       LGT SNOW  21  16  82 W9        29.69S WCI  11
CHARLEVOIX     LGT SNOW  26  17  68 W16G25    29.71R WCI  14
FRANKFORT      PTSUNNY   26  17  69 W17       29.75S WCI  12
GAYLORD        LGT SNOW  22  17  81 W14G21    29.63R VSB 1   WCI   9
GRAYLING       FLURRIES  23  16  74 W12G18    29.67R WCI  12
HARBOR SPRINGS FLURRIES  26  18  74 W10G17    29.66S WCI  15
HOUGHTON LAKE  CLOUDY    22  15  75 W15       29.68S WCI   9
MANISTEE       CLOUDY    24  16  71 W18G24    29.77S WCI  10
OSCODA         CLOUDY    24  17  74 W14       29.67F WCI  12
PELLSTON       CLOUDY    25  19  78 W18G24    29.65S WCI  11
ROGERS CITY    PTSUNNY   27  18  69 W8        29.65S WCI  18
TRAVERSE CITY  LGT SNOW  25  18  74 W13       29.72S WCI  14
$$
MIZ007>008-015-152000-
EASTERN UPPER MICHIGAN

CITY           SKY/WX    TMP DP  RH WIND       PRES   REMARKS
KINROSS        CLOUDY    24  18  77 W8        29.62S WCI  15
MACKINAC ISLAN CLOUDY    26  19  74 W12       29.63S WCI  16
NEWBERRY       SNOW      22  21  97 NW12      29.64S VSB 1/4 WCI  10
S. S. MARIE    CLOUDY    23  17  78 CALM      29.61F
MUNISING         N/A     24  17  74 NW23G31   29.70S WCI   9
$$
MIZ004>006-011>014-085-152000-
CENTRAL UPPER MICHIGAN

CITY           SKY/WX    TMP DP  RH WIND       PRES   REMARKS
MANISTIQUE     CLOUDY    23   8  52 W14G20    29.69R WCI  10
ESCANABA       SUNNY     24  12  60 W16       29.73F WCI  11
MENOMINEE      PTSUNNY   25  11  55 W8G17     29.79S WCI  16
SAWYER-GWINN   PTSUNNY   18  12  79 NW9       29.69F WCI   6
$$
MIZ001>003-009>011-084-152000-
WESTERN UPPER MICHIGAN

CITY           SKY/WX    TMP DP  RH WIND       PRES   REMARKS
IRON MOUNTAIN  CLOUDY    20   8  60 NW13      29.72S WCI   7
HOUGHTON       LGT SNOW  18   8  65 N14       29.71F WCI   4
COPPER HARBOR    N/A     19  11  70 N17       29.74R WCI   4
IRONWOOD       FLURRIES  13   6  74 W12       29.78F WCI  -1
$$

ABBREVIATIONS USED IN REMARKS
   TC - TEMPERATURE IN CELSIUS
  WCI - WIND CHILL INDEX
   HX - HEAT INDEX
  VSB - VISIBILITY





USA.gov is the U.S. government's official web portal to all federal, state and local government web resources and services.